TimeCDT,TemperatureF,Dew PointF,Humidity,Sea Level PressureIn,VisibilityMPH,Wind Direction,Wind SpeedMPH,Gust SpeedMPH,PrecipitationIn,Events,Conditions,WindDirDegrees,DateUTC
12:02 AM,41.0,37.4,87,30.14,3.0,NW,10.4,-,0.05,Rain-Thunderstorm,Heavy Thunderstorms and Rain,310,2013-04-24 05:02:00
12:39 AM,41.0,37.4,87,30.15,4.0,NW,9.2,-,0.18,Rain,Rain,310,2013-04-24 05:39:00
12:53 AM,41.0,37.9,89,30.14,5.0,NW,12.7,-,0.21,Rain,Light Rain,320,2013-04-24 05:53:00
1:50 AM,41.0,37.4,87,30.15,10.0,NNW,8.1,-,0.04,,Overcast,330,2013-04-24 06:50:00
1:53 AM,41.0,37.0,86,30.14,10.0,NNW,9.2,-,0.04,,Overcast,330,2013-04-24 06:53:00
2:53 AM,41.0,37.0,86,30.17,10.0,NW,11.5,-,0.01,Rain,Light Rain,310,2013-04-24 07:53:00
3:38 AM,41.0,37.4,87,30.17,10.0,WNW,8.1,-,0.01,,Overcast,290,2013-04-24 08:38:00
3:53 AM,41.0,37.0,86,30.18,10.0,NW,10.4,-,0.01,,Overcast,310,2013-04-24 08:53:00
4:53 AM,41.0,35.6,81,30.21,10.0,NW,10.4,21.9,N/A,,Overcast,320,2013-04-24 09:53:00
5:22 AM,41.0,35.6,81,30.22,10.0,NW,10.4,-,N/A,,Overcast,320,2013-04-24 10:22:00
5:53 AM,41.0,35.1,79,30.23,10.0,NW,8.1,-,N/A,,Overcast,320,2013-04-24 10:53:00
6:53 AM,41.0,35.1,79,30.25,10.0,NW,8.1,-,N/A,,Overcast,310,2013-04-24 11:53:00
7:53 AM,42.1,34.0,73,30.27,10.0,NNW,9.2,-,N/A,,Scattered Clouds,340,2013-04-24 12:53:00
8:45 AM,42.8,35.6,76,30.27,10.0,NW,11.5,-,N/A,,Mostly Cloudy,310,2013-04-24 13:45:00
8:53 AM,42.1,34.0,73,30.28,10.0,NW,12.7,-,N/A,,Mostly Cloudy,310,2013-04-24 13:53:00
9:48 AM,44.6,33.8,66,30.28,10.0,NNW,11.5,-,N/A,,Scattered Clouds,340,2013-04-24 14:48:00
9:53 AM,44.1,32.0,63,30.28,10.0,North,9.2,17.3,N/A,,Partly Cloudy,350,2013-04-24 14:53:00
10:35 AM,46.4,33.8,62,30.29,10.0,WNW,6.9,-,N/A,,Mostly Cloudy,300,2013-04-24 15:35:00
10:53 AM,46.9,33.1,59,30.30,10.0,Variable,6.9,-,N/A,,Mostly Cloudy,0,2013-04-24 15:53:00
11:53 AM,50.0,33.1,52,30.31,10.0,WNW,9.2,-,N/A,,Scattered Clouds,290,2013-04-24 16:53:00
12:53 PM,52.0,30.9,45,30.29,10.0,NNE,4.6,-,N/A,,Clear,30,2013-04-24 17:53:00
1:53 PM,55.0,30.9,40,30.28,10.0,Variable,4.6,-,N/A,,Clear,0,2013-04-24 18:53:00
2:53 PM,57.0,30.0,36,30.27,10.0,NW,8.1,-,N/A,,Clear,320,2013-04-24 19:53:00
3:53 PM,59.0,28.0,31,30.24,10.0,WNW,6.9,-,N/A,,Clear,290,2013-04-24 20:53:00
4:53 PM,61.0,27.0,27,30.23,10.0,NNW,8.1,-,N/A,,Clear,330,2013-04-24 21:53:00
5:53 PM,61.0,26.1,26,30.23,10.0,Variable,3.5,-,N/A,,Clear,0,2013-04-24 22:53:00
6:53 PM,60.1,27.0,28,30.24,10.0,North,9.2,-,N/A,,Clear,10,2013-04-24 23:53:00
7:53 PM,55.0,35.1,47,30.25,10.0,Variable,3.5,-,N/A,,Clear,0,2013-04-25 00:53:00
8:53 PM,54.0,34.0,47,30.28,10.0,West,5.8,-,N/A,,Clear,260,2013-04-25 01:53:00
9:53 PM,51.1,36.0,56,30.30,10.0,West,3.5,-,N/A,,Clear,280,2013-04-25 02:53:00
10:53 PM,46.9,37.9,71,30.30,10.0,Calm,Calm,-,N/A,,Clear,0,2013-04-25 03:53:00
11:53 PM,45.0,37.9,76,30.33,10.0,West,6.9,-,N/A,,Clear,270,2013-04-25 04:53:00